Flag for Mozambique Weather past 2 weeks in Nampula, Mozambique

Now
77 °F

Partly sunny.


Feels Like: 79 °F
Forecast: 62 / 84 °F
Wind: 14 mph from South

Location: Nampula Airport

Current Time: Sep 23, 2014 at 11:35:58 AM

Latest Report: Sep 23, 2014 at 11:00 AM


Visibility: N/A

Pressure: 30.12 "Hg

Humidity: 51%

Dew point: 57 °F

Location of NampulaLocation

Historic Weather in Nampula — Graph

°F

Nampula temperature yesterday

Maximum temperature yesterday: 84 °F (at 3:00 PM)
Minimum temperature yesterday: 66 °F (at 5:00 AM)
Average temperature yesterday: 73 °F

Past Weeks' High & Low Weather Summary

 TemperatureHumidityPressure
High91 °F (Sep 15, 3:00 PM)100% (Sep 9, 5:00 AM)30.27 "Hg (Sep 9, 5:00 AM)
Low64 °F (Sep 9, 5:00 AM)24% (Sep 17, 3:00 PM)29.92 "Hg (Sep 16, 4:00 PM)
Average77 °F61%30.09 "Hg
* Reported Sep 8 9:00 AM — Sep 23 9:00 AM, Nampula, Weather by CustomWeather, © 2014

Note: Actual official high and low records may vary slightly from our data, if they occured in-between our weather recording intervals... More about our weather records

Advertising

Nampula weather history for previous 24 hours

 ConditionsComfort  
Time TempWeatherWind HumidityBarometerVisibility
9:00 AM
Sep 23
73 °FPartly sunny.13 mph61%30.15 "HgN/A
8:00 AM70 °FPartly sunny.13 mph78%30.12 "HgN/A
6:00 AM66 °FPartly sunny.12 mph83%30.09 "HgN/A
5:00 AM66 °FPassing clouds.9 mph83%30.09 "HgN/A
3:00 AM64 °FPassing clouds.12 mph88%30.09 "HgN/A
2:00 AM66 °FPassing clouds.10 mph83%30.09 "HgN/A
1:00 AM66 °FPassing clouds.13 mph83%30.09 "HgN/A
11:00 PM
Sep 22
68 °FPassing clouds.12 mph94%30.12 "HgN/A
10:00 PM68 °FClear.10 mph83%30.12 "Hg10 mi
9:00 PM70 °FPassing clouds.16 mph73%30.12 "HgN/A
8:00 PM72 °FPassing clouds.14 mph78%30.09 "HgN/A
5:00 PM79 °FPassing clouds.12 mph58%30.07 "HgN/A
3:00 PM84 °FPartly sunny.14 mph45%30.07 "HgN/A
2:00 PM82 °FPartly sunny.17 mph51%30.07 "HgN/A
12:00 PM82 °FPartly sunny.10 mph48%30.18 "HgN/A
11:00 AM79 °FPartly sunny.12 mph58%30.15 "HgN/A
Weather by CustomWeather, © 2014

See weather overviewHow to use our weather pages